Regional Weather Roundup
Issued by NWS Upton, NY

Current Version | Previous Version | Graphics & Text | Print | Product List | Glossary Off
Versions: 1 2 3 4 5 6 7 8 9 10 11 12 13 14 15 16 17 18 19 20 21 22 23 24 25 26 27

000
ASUS41 KOKX 221905
RWROKX

REGIONAL WEATHER ROUNDUP
NATIONAL WEATHER SERVICE NEW YORK NY
300 PM EDT WED OCT 22 2014

NOTE: "FAIR" INDICATES FEW OR NO CLOUDS BELOW 12,000 FEET WITH NO
SIGNIFICANT WEATHER AND/OR OBSTRUCTIONS TO VISIBILITY.

NYZ071-072-176-178-NJZ106-104-222000-
NEW YORK CITY METRO AREA


CITY           SKY/WX    TMP DP  RH WIND       PRES   REMARKS
CENTRAL PARK   CLOUDY    56  49  77 N15G25    29.88F
LAGUARDIA APRT CLOUDY    57  48  72 N16G29    29.85F
KENNEDY INTL   CLOUDY    58  49  72 N20G33    29.83F
NEWARK/LIBERTY LGT RAIN  57  50  77 N24G30    29.85F
BRNX BOT. GARD   N/A     55  46  71 N13       29.85F
TETERBORO      CLOUDY    57  48  72 N10G18    29.85F
$$

NYZ177-179-078>081-222000-
LONG ISLAND NEW YORK

CITY           SKY/WX    TMP DP  RH WIND       PRES   REMARKS
FARMINGDALE    CLOUDY    56  49  77 NE25G36   29.81F
ISLIP          LGT RAIN  55  50  83 N22G37    29.79F
SHIRLEY        LGT RAIN  54  51  90 N14G26    29.81F
WESTHAMPTON    RAIN      55  51  86 NE20G32   29.80F FOG
MONTAUK POINT    N/A     57  52  83 N16G30    29.83F
$$

NYZ052-065-067-222000-
HUDSON VALLEY

CITY           SKY/WX    TMP DP  RH WIND       PRES   REMARKS
WHITE PLAINS   CLOUDY    55  47  74 N20G26    29.85F
NEWBURGH       CLOUDY    52  48  87 NE17G29   29.94F
MONTGOMERY     CLOUDY    54  46  74 N20G29    29.93F
POUGHKEEPSIE   CLOUDY    53  47  79 N15G21    29.94F HAZE
ALBANY         CLOUDY    53  45  74 N16G26    30.03F
$$

NJZ001-105-106-008-010-013-015-019>022-104-222000-
NEW JERSEY

CITY           SKY/WX    TMP DP  RH WIND       PRES   REMARKS
NEWARK/LIBERTY LGT RAIN  57  50  77 N24G30    29.85F
TETERBORO      CLOUDY    57  48  72 N10G18    29.85F
CALDWELL       CLOUDY    54  46  74 N12G23    29.88F
MORRISTOWN     CLOUDY    57  50  77 N13G23    29.88F
SOMERVILLE     LGT RAIN  56  48  74 N12       29.86F
SUSSEX         LGT RAIN  56  47  71 NE15G26   29.92F
ANDOVER          N/A     53  47  79 NE8G30    29.91S
TRENTON        LGT RAIN  54  50  86 N12G20    29.85S
MILLVILLE      LGT RAIN  56  52  86 N15       29.80F
ATLANTIC CITY  CLOUDY    55  53  93 N17G25    29.76F
WRIGHTSTOWN    CLOUDY    54  53  95 N17G24    29.79F
TOMS RIVER     CLOUDY    55  52  88 N10G18    29.79F
BELMAR         CLOUDY    55  48  76 N17G23    29.80S
$$

PAZ047>061-062-071-222000-
EASTERN PENNSYLVANIA

CITY           SKY/WX    TMP DP  RH WIND       PRES   REMARKS
PHILADELPHIA   RAIN      55  51  86 N16       29.85F
ALLENTOWN      CLOUDY    57  48  72 N10       29.91F
SCRANTON       LGT RAIN  53  46  77 N13       29.97F
$$

CTZ002-004>006-009-010-012-RIZ004-006-007-MAZ004-011-015-222000-
SOUTHERN NEW ENGLAND
 IN CT

CITY           SKY/WX    TMP DP  RH WIND       PRES   REMARKS
BRADLEY INTL   LGT RAIN  53  48  83 N12G20    29.93F
HARTFORD       LGT RAIN  52  48  86 N14G21    29.92F
DANBURY        CLOUDY    53  45  74 NE15G24   29.91F
WTRBRY/OXFORD  CLOUDY    50  43  76 NE17G26   29.88F
BRIDGEPORT     CLOUDY    56  49  77 NE21G30   29.86F
MERIDEN        CLOUDY    52  48  86 N13G22    29.90F
NEW HAVEN      CLOUDY    56  49  77 N21G29    29.86F
CHESTER        CLOUDY    52  48  87 NE13G21   29.87F
GROTON         CLOUDY    54  50  86 NE22G36   29.83F
WILLIMANTIC    LGT RAIN  53  48  83 NE18G28   29.90F

 IN RI

CITY           SKY/WX    TMP DP  RH WIND       PRES   REMARKS
PROVIDENCE     LGT RAIN  53  50  89 N21G28    29.89F FOG
BLOCK ISLAND   CLOUDY    55  52  88 NE25G37   29.81F
WESTERLY       LGT RAIN  55  50  83 N14G31    29.84F

 IN MA

CITY           SKY/WX    TMP DP  RH WIND       PRES   REMARKS
BOSTON         LGT RAIN  52  50  93 NE30G39   29.93F FOG
WORCESTER      LGT RAIN  47  46  97 NE15G28   29.93F FOG
WESTFIELD      LGT RAIN  51  48  89 N9        29.95F
PROVINCETOWN   CLOUDY    55  52  88 N24G35    29.85F
NANTUCKET      CLOUDY    57  55  93 NE22G31   29.80F
$$

ANZ330-335-338-340-345-350-353-355-222000-
COASTAL MARINE OBSERVATIONS


STATION/POSITION TIME  SKY/WX   TEMP    WIND        PRES    VSBY  WAVE
                                AIR SEA DIR/SP/G                  HT/PER
                 (UTC)          (F)     (DEG/KT/KT) (MB)    (MI)  (FT/S)
NY HARB ENTRANCE NOT AVBL
4S FIRE IS       1900               63                N/A           7/ 6
20S FIRE ISLAND  1900            59 64   20/ 31/ 37 1006.0         10/ 7
23SW MTP         1900                                 N/A          10/ 7
HUDSON CANYON    1800            62 66   30/ 29/ 37 1003.7         11/ 7
EXECUTION ROCKS  1900            58 63   30/ 19/ 27   N/A
WESTERN LI SOUND 1900            58      30/ 21/ 27   N/A           3/ 4
CENTRAL LI SOUND 1800            56 63   20/ 23/ 29   N/A           4/ 5
EASTERN LI SOUND 1800            57 63   30/ 21/ 27   N/A
ROBBINS REEF     1900            56     360/ 24/ 27 1009.1
$$


>>>>>>>>>>>>>>>>>>>>>>>>>>>> KEY <<<<<<<<<<<<<<<<<<<<<<<<<<<
>                                                          <
>     SKY/WX - SKY CONDITION/PRESENT WEATHER               <
>     TMP    - TEMPERATURE IN FAHRENHEIT                   <
>     DP     - DEWPOINT IN FAHRENHEIT                      <
>     RH     - RELATIVE HUMIDITY IN PERCENT                <
>     WIND   - DIRECTION AND SPEED IN MPH                  <
>     PRES   - MEAN SEA LEVEL PRESSURE IN INCHES OF HG     <
>     WCI    - WIND CHILL INDEX                            <
>     VSB    - VISIBILITY IN MILES                         <
>     HX     - HEAT INDEX                                  <
>     TC     - TEMPERATURE IN CELSIUS                      <
>     VRB    - VARIABLE WIND DIRECTION                     <
>                                                          <
>>>>>>>>>>>>>>>>>>>>>>>>>>>> KEY <<<<<<<<<<<<<<<<<<<<<<<<<<<





USA.gov is the U.S. government's official web portal to all federal, state and local government web resources and services.